Weather History for KAQP - January, 2013

Change the Weather History Date:

Tuesday, January 15, 2013

  Actual Average Record
Temperature  
Mean Temperature 14 °F -  
Max Temperature 26 °F 17 °F 42 °F (2012)
Min Temperature 3 °F 1 °F -31 °F (2009)
Degree Days  
Heating Degree Days 50    
Moisture  
Dew Point 8 °F    
Average Humidity 72    
Maximum Humidity 92    
Minimum Humidity 54    
Precipitation  
Precipitation 0.00 in - - ()
Sea Level Pressure  
Sea Level Pressure 30.03 in    
Wind  
Wind Speed 6 mph (South)    
Max Wind Speed 15 mph    
Max Gust Speed 18 mph    
Visibility 10 miles    
Events Snow    
Averages and records for this station are not official NWS values.
T = Trace of Precipitation, MM = Missing Value Source: NWS Daily Summary

Daily Weather History Graph

Daily Weather History Graph

Search for Another Location

Airport or City:

Trip Planner

Search our weather history database for the weather conditions in past years. The results will help you decide how hot, cold, wet, or windy it might be!

Date:

Astronomy

Jan. 15, 2013 Rise Set
Actual Time 7:59 AM CST 5:08 PM CST
Civil Twilight 7:26 AM CST 5:41 PM CST
Nautical Twilight 6:49 AM CST 6:17 PM CST
Astronomical Twilight 6:14 AM CST 6:53 PM CST
Moon 9:51 AM CST (1/15) 10:15 PM CST (1/15)
Length of Visible Light 10h 14m
Length of Day
9h 09m
Waxing Crescent, 19% of the Moon is Illuminated
Jan 15
Waxing Crescent
Jan 18
First Quarter
Jan 26
Full
Feb 3
Last Quarter
Feb 10
New

Hourly Weather History & Observations

Time (CST) Temp. Windchill Dew Point Humidity Pressure Visibility Wind Dir Wind Speed Gust Speed Precip Events Conditions
12:13 AM 6.8 °F -2.0 °F 1.4 °F 79% 30.23 in 10.0 mi WSW 4.6 mph - N/A   Scattered Clouds
12:33 AM 5.0 °F - 1.4 °F 85% 30.22 in 10.0 mi Calm Calm - N/A   Scattered Clouds
12:54 AM 5.0 °F - 1.4 °F 85% 30.22 in 10.0 mi Calm Calm - N/A   Mostly Cloudy
1:33 AM 3.2 °F - 1.4 °F 92% 30.21 in 10.0 mi Calm Calm - N/A   Mostly Cloudy
1:53 AM 3.2 °F - -0.4 °F 85% 30.21 in 10.0 mi Calm Calm - N/A   Scattered Clouds
2:13 AM 3.2 °F -6.2 °F -0.4 °F 85% 30.21 in 10.0 mi SSW 4.6 mph - N/A   Clear
2:33 AM 3.2 °F -6.2 °F 1.4 °F 92% 30.21 in 10.0 mi SSW 4.6 mph - N/A   Mostly Cloudy
2:53 AM 3.2 °F - -0.4 °F 85% 30.21 in 10.0 mi Calm Calm - N/A   Overcast
3:13 AM 3.2 °F -4.2 °F -0.4 °F 85% 30.20 in 10.0 mi South 3.5 mph - N/A   Overcast
3:34 AM 3.2 °F -6.2 °F 1.4 °F 92% 30.19 in 10.0 mi SSE 4.6 mph - N/A   Overcast
3:54 AM 5.0 °F - 1.4 °F 85% 30.19 in 10.0 mi Calm Calm - N/A   Overcast
4:13 AM 6.8 °F -2.0 °F 3.2 °F 85% 30.19 in 10.0 mi SSE 4.6 mph - N/A   Overcast
4:33 AM 6.8 °F -0.1 °F 3.2 °F 85% 30.17 in 10.0 mi SSE 3.5 mph - N/A   Overcast
5:13 AM 8.6 °F - 3.2 °F 79% 30.15 in 10.0 mi Calm Calm - N/A   Overcast
5:34 AM 8.6 °F -1.3 °F 5.0 °F 85% 30.13 in 10.0 mi SSE 5.8 mph - N/A   Overcast
5:54 AM 8.6 °F -1.3 °F 5.0 °F 85% 30.13 in 10.0 mi SE 5.8 mph - N/A   Overcast
6:13 AM 8.6 °F - 5.0 °F 85% 30.14 in 10.0 mi Calm Calm - N/A   Overcast
6:33 AM 8.6 °F 0.1 °F 5.0 °F 85% 30.13 in 10.0 mi SSE 4.6 mph - N/A   Overcast
6:53 AM 10.4 °F 4.0 °F 5.0 °F 79% 30.14 in 10.0 mi SE 3.5 mph - N/A   Overcast
7:14 AM 10.4 °F 2.2 °F 5.0 °F 79% 30.13 in 10.0 mi SE 4.6 mph - N/A   Overcast
7:33 AM 8.6 °F -2.6 °F 5.0 °F 85% 30.13 in 10.0 mi SE 6.9 mph - N/A   Overcast
7:53 AM 8.6 °F 0.1 °F 5.0 °F 85% 30.13 in 10.0 mi SSE 4.6 mph - N/A   Mostly Cloudy
8:14 AM 8.6 °F 2.0 °F 3.2 °F 79% 30.14 in 10.0 mi SSE 3.5 mph - N/A   Mostly Cloudy
8:33 AM 8.6 °F -1.3 °F 3.2 °F 79% 30.13 in 10.0 mi SSE 5.8 mph - N/A   Scattered Clouds
8:53 AM 10.4 °F -0.4 °F 3.2 °F 73% 30.13 in 10.0 mi SSE 6.9 mph - N/A   Clear
9:13 AM 10.4 °F -1.5 °F 3.2 °F 73% 30.13 in 10.0 mi SSE 8.1 mph - N/A   Clear
9:33 AM 10.4 °F -0.4 °F 3.2 °F 73% 30.13 in 10.0 mi South 6.9 mph - N/A   Clear
9:53 AM 12.2 °F 0.7 °F 3.2 °F 67% 30.12 in 10.0 mi SSW 8.1 mph - N/A   Clear
10:13 AM 12.2 °F 0.7 °F 3.2 °F 67% 30.12 in 10.0 mi SSW 8.1 mph - N/A   Clear
10:33 AM 14.0 °F 5.1 °F 5.0 °F 67% 30.11 in 10.0 mi South 5.8 mph - N/A   Clear
10:53 AM 15.8 °F 5.1 °F 5.0 °F 62% 30.10 in 10.0 mi South 8.1 mph - N/A   Clear
11:13 AM 15.8 °F 4.2 °F 6.8 °F 68% 30.09 in 10.0 mi SSW 9.2 mph - N/A   Clear
11:33 AM 17.6 °F 7.3 °F 6.8 °F 63% 30.08 in 10.0 mi SSW 8.1 mph - N/A   Clear
11:53 AM 19.4 °F 7.9 °F 6.8 °F 58% 30.06 in 10.0 mi SSW 10.4 mph - N/A   Clear
12:13 PM 19.4 °F 7.9 °F 6.8 °F 58% 30.05 in 10.0 mi SSW 10.4 mph - N/A   Clear
12:33 PM 21.2 °F 8.9 °F 8.6 °F 58% 30.04 in 10.0 mi SSW 12.7 mph - N/A   Clear
12:53 PM 21.2 °F 9.5 °F 8.6 °F 58% 30.03 in 10.0 mi SSW 11.5 mph - N/A   Clear
1:13 PM 21.2 °F 9.5 °F 10.4 °F 63% 30.02 in 10.0 mi SSW 11.5 mph - N/A   Clear
1:33 PM 23.0 °F 11.1 °F 10.4 °F 59% 30.01 in 10.0 mi SSW 12.7 mph - N/A   Clear
1:53 PM 23.0 °F 13.1 °F 10.4 °F 59% 30.00 in 10.0 mi SSW 9.2 mph - N/A   Clear
2:13 PM 23.0 °F 11.7 °F 8.6 °F 54% 29.99 in 10.0 mi SSW 11.5 mph - N/A   Clear
2:34 PM 23.0 °F 13.1 °F 10.4 °F 59% 29.99 in 10.0 mi SSW 9.2 mph - N/A   Clear
2:53 PM 23.0 °F 12.4 °F 10.4 °F 59% 29.99 in 10.0 mi SSW 10.4 mph - N/A   Clear
3:33 PM 23.0 °F 13.1 °F 12.2 °F 63% 29.99 in 10.0 mi South 9.2 mph - N/A   Clear
3:54 PM 21.2 °F 10.9 °F 12.2 °F 68% 29.99 in 10.0 mi SSW 9.2 mph - N/A   Clear
4:14 PM 21.2 °F 10.1 °F 12.2 °F 68% 29.99 in 10.0 mi South 10.4 mph - N/A   Clear
4:54 PM 21.2 °F 9.5 °F 12.2 °F 68% 29.97 in 10.0 mi South 11.5 mph - N/A   Clear
5:14 PM 21.2 °F 10.9 °F 12.2 °F 68% 29.96 in 10.0 mi SSW 9.2 mph - N/A   Clear
5:33 PM 19.4 °F 8.6 °F 12.2 °F 74% 29.96 in 10.0 mi South 9.2 mph - N/A   Clear
5:53 PM 19.4 °F 8.6 °F 12.2 °F 74% 29.95 in 10.0 mi South 9.2 mph - N/A   Clear
6:13 PM 19.4 °F 7.9 °F 10.4 °F 68% 29.94 in 10.0 mi SSW 10.4 mph - N/A   Clear
6:33 PM 19.4 °F 8.6 °F 10.4 °F 68% 29.92 in 10.0 mi SSW 9.2 mph - N/A   Clear
6:53 PM 19.4 °F 7.2 °F 10.4 °F 68% 29.91 in 10.0 mi SSW 11.5 mph - N/A   Clear
7:14 PM 19.4 °F 7.2 °F 10.4 °F 68% 29.90 in 10.0 mi South 11.5 mph - N/A   Clear
7:34 PM 19.4 °F 7.2 °F 10.4 °F 68% 29.88 in 10.0 mi South 11.5 mph - N/A   Clear
7:53 PM 19.4 °F 8.6 °F 12.2 °F 74% 29.87 in 10.0 mi SSW 9.2 mph - N/A   Clear
8:13 PM 19.4 °F 7.9 °F 12.2 °F 74% 29.86 in 10.0 mi SSW 10.4 mph - N/A   Clear
8:33 PM 21.2 °F 10.1 °F 12.2 °F 68% 29.85 in 10.0 mi SSW 10.4 mph - N/A   Clear
8:54 PM 21.2 °F 8.9 °F 12.2 °F 68% 29.83 in 10.0 mi SSW 12.7 mph - N/A   Scattered Clouds
9:13 PM 21.2 °F 9.5 °F 12.2 °F 68% 29.82 in 10.0 mi SSW 11.5 mph - N/A   Overcast
9:33 PM 23.0 °F 11.7 °F 12.2 °F 63% 29.81 in 10.0 mi SSW 11.5 mph - N/A   Overcast
9:53 PM 23.0 °F 11.1 °F 12.2 °F 63% 29.79 in 10.0 mi SSW 12.7 mph - N/A   Overcast
10:14 PM 24.8 °F 12.9 °F 12.2 °F 59% 29.76 in 10.0 mi SSW 13.8 mph - N/A   Overcast
10:33 PM 24.8 °F 12.9 °F 12.2 °F 59% 29.75 in 10.0 mi SSW 13.8 mph - N/A   Scattered Clouds
10:53 PM 24.8 °F 14.0 °F 12.2 °F 59% 29.74 in 10.0 mi SSW 11.5 mph - N/A   Mostly Cloudy
11:13 PM 24.8 °F 14.6 °F 15.8 °F 69% 29.73 in 10.0 mi SSW 10.4 mph - N/A Snow Light Snow
11:33 PM 26.6 °F 14.7 °F 19.4 °F 74% 29.72 in 5.0 mi SSW 15.0 mph 18.4 mph N/A Snow Light Snow
11:53 PM 26.6 °F 15.2 °F 21.2 °F 80% 29.70 in 10.0 mi SW 13.8 mph - N/A Snow Light Snow